Other Surface Observations
Issued by NWS

Home | Current Version | Previous Version | Text Only | Print | Product List | Glossary On
Versions: 1 2 3 4 5 6 7 8 9 10 11 12 13 14 15 16 17 18 19 20 21 22 23 24 25 26 27 28 29 30 31 32 33 34 35 36 37 38 39 40 41 42 43 44 45 46 47 48 49 50
000
SXUS52 KTAE 121505
OSOTAE
OSOTAE
North Florida/South Alabama/Southwest Georgia Weather Roundup
National Weather Service Tallahassee Florida
1000 AM EST TUE DEC 12 2017

Note: "fair" indicates few or no clouds below 12,000 feet with no
significant weather and/or obstructions to visibility.

!FLZ017-115-028-034-025-121600
...North Florida...

CITY           SKY/WX    TMP DP  RH WIND       PRES   REMARKS
TALLAHASSEE    SUNNY     57  44  62 W14       29.98S
APALACHICOLA   SUNNY     66  49  54 W17G25    30.00R
PERRY          SUNNY     65  49  56 W12G22    29.98F
CROSS CITY     SUNNY     65  56  72 W7        30.04S
JACKSONVILLE   MOSUNNY   61  52  72 SW13      29.94F
$$

!FLZ112-006-005-002-011-121600
...Florida Panhandle...

CITY           SKY/WX    TMP DP  RH WIND       PRES   REMARKS
MARIANNA       SUNNY     55  42  61 NW15G21   29.99R
BONIFAY        NOT AVBL
PANAMA CITY NW FAIR      56  40  55 W17       30.02R
TYNDALL AFB    SUNNY     60  41  49 NW16      30.02R
TYND DRONE APT FAIR      60  42  52 N10G16    30.03R
DE FUNIAK SPR  FAIR      52  38  60 NW17G23   30.04R
EGLIN AFB      MOSUNNY   55  37  50 N20       30.05R
DESTIN         SUNNY     58  37  45 N16       30.05R
HURLBURT       SUNNY     55  38  52 N13G23    30.04R
CRESTVIEW      SUNNY     54  37  52 N12G20    30.07R
PENSACOLA      SUNNY     55  38  52 NW13G23   30.08R
$$

!ALZ063-066-121600
...South Alabama...

CITY           SKY/WX    TMP DP  RH WIND       PRES   REMARKS
DOTHAN         SUNNY     52  41  66 NW14      30.03R
OZARK CAIRNS   SUNNY     51  38  61 NW12      30.01R
FT RUCKER HELI SUNNY     51  39  62 NW12      30.01R
RUCKER HELI 3    N/A     51  38  61 NW16      30.01R
RUCKER HELI 2  FAIR      51  39  63 NW8G18    30.00R
FLORALA APT    SUNNY     52  37  56 VRB7      30.07R
ANDALUSIA      SUNNY     54  36  50 NW14      30.05R
TROY           SUNNY     51  35  54 NW22G29   30.04R
EUFALA         FAIR      54  39  57 NW8       29.98R
MOBILE         MOSUNNY   53  37  54 NW9       30.14R
$$

!GAZ120>161-121600
...Southwest and South Central Georgia...

CITY           SKY/WX    TMP DP  RH WIND       PRES   REMARKS
THOMASVILLE    FAIR      55  45  67 W7G16     29.96S
BAINBRIDGE     SUNNY     55  46  71 W14G20    29.98R
MOODY AFB      SUNNY     56  45  64 W12G21    29.92S
VALDOSTA       SUNNY     58  45  62 W8        29.95S
MOULTRIE       SUNNY     54  45  71 W8        29.95S
BLAKELY        NOT AVBL
ALBANY         SUNNY     52  43  71 W9        29.97R
TIFTON         FAIR      53  44  71 W13G18    29.91F
FITZGERALD     FAIR      55  45  69 W13       29.92F
CORDELE        FAIR      55  41  60 W14       29.93R
AMERICUS       FAIR      50  34  53 NW14      29.94R WCI  45
HOMERVILLE     FAIR      55  46  71 W10G18    29.92F
$$

!GMZ750-755-770-775-121600
...Coastal and Buoy Obs...

STATION/POSITION TIME  TEMP    WIND        PRES    VSBY  WAVE
                       AIR SEA DIR/SP/G                  HT/PER
                 (UTC) (F)     (DEG/KT/KT) (MB)    (MI)  (FT/S)
KEATON BEACH     1500   61     260/ 11/ 11 1015.0F
CEDAR KEY        1400   63     260/  7/  9 1016.6F
C TOWER          1500   67     290/ 26/ 28 1016.5F
APALACHICOLA BUO NOT AVBL
PANAMA CITY BUOY 1350   70 74  270/ 23/ 27 1016.8          7/ 7
MOBILE BUOY      1450   61 74  310/ 21/ 27 1019.9R         7/ 6
ORANGE BCH AL BU NOT AVBL
$$




USA.gov is the U.S. government's official web portal to all federal, state and local government web resources and services.